This demonstration page uses our WeatherBlox Daily Observations layout. Learn more.

Hourly Observations for March 7, 2016

Temp ( °F °C ) Dew Point ( °F °C ) Humidity (%) Winds ( mph kmh ) Pressure ( in mb ) Visibility ( mi km ) Precip ( " mm )
12:15 am 00:15 Clear 50 10.1 46 7.5 84 84 S 6 9 29.53 1000 10 16.0934 0 0
12:35 am 00:35 Clear 51 10.5 46 7.6 82 82 S 7 11 29.5 999 10 16.0934 0 0
12:55 am 00:55 Clear 49 9.3 45 7.1 86 86 S 8 13 29.5 999 10 16.0934 0 0
1:15 am 01:15 Clear 48 9.1 45 7.1 87 87 S 7 11 29.5 999 10 16.0934 0 0
1:35 am 01:35 Clear 47 8.4 44 6.6 89 89 S 7 11 29.5 999 10 16.0934 0 0
1:55 am 01:55 Clear 47 8.2 44 6.8 91 91 S 9 15 29.5 999 10 16.0934 0 0
2:15 am 02:15 Clear 44 6.9 42 5.4 90 90 SSE 5 7 29.53 1000 10 16.0934 0 0
2:35 am 02:35 Clear 44 6.8 43 5.9 94 94 S 7 11 29.53 1000 10 16.0934 0 0
2:55 am 02:55 Clear 45 7 42 5.7 92 92 S 7 11 29.5 999 10 16.0934 0 0
3:15 am 03:15 Clear 45 7 42 5.7 92 92 S 7 11 29.5 999 10 16.0934 0 0
3:35 am 03:35 Clear 43 6.3 41 5.1 92 92 S 6 9 29.5 999 7 11.26538 0 0
3:55 am 03:55 Clear 42 5.6 40 4.6 93 93 S 5 7 29.5 999 7 11.26538 0 0
4:15 am 04:15 Clear 42 5.3 40 4.4 94 94 S 8 13 29.5 999 7 11.26538 0 0
4:35 am 04:35 Clear with Mist and Fog 41 5 40 4.2 95 95 SSE 6 9 29.5 999 5 8.0467 0 0
4:55 am 04:55 Clear with Mist and Fog 41 5.1 40 4.4 95 95 S 6 9 29.5 999 5 8.0467 0 0
5:15 am 05:15 Clear with Mist and Fog 40 4.2 38 3.5 95 95 Calm 29.53 1000 3 4.82802 0 0
5:35 am 05:35 Cloudy with Fog 39 3.7 37 2.9 95 95 Calm 29.53 1000 5 8.0467 0 0
5:55 am 05:55 Cloudy with Fog 39 4 38 3.5 97 97 SSE 3 6 29.53 1000 0.25 0.402335 0 0
6:15 am 06:15 Cloudy with Fog 40 4.5 39 3.8 95 95 SSE 6 9 29.5 999 0.25 0.402335 0 0
6:35 am 06:35 Cloudy with Light Rain 43 5.9 42 5.4 97 97 SSW 6 9 29.5 999 5 8.0467 0 0
6:55 am 06:55 Cloudy with Light Snow 45 7.3 44 6.8 97 97 S 9 15 29.5 999 0.25 0.402335 0 0
7:15 am 07:15 Cloudy with Light Rain 47 8.6 47 8.1 97 97 S 6 9 29.47 998 5 8.0467 0 0
7:35 am 07:35 Cloudy with Drizzle 48 9 47 8.5 97 97 S 7 11 29.47 998 5 8.0467 0 0
7:55 am 07:55 Cloudy with Light Rain 48 9 47 8.5 97 97 S 9 15 29.47 998 5 8.0467 0 0
8:15 am 08:15 Cloudy with Drizzle 49 9.3 48 8.8 97 97 S 9 15 29.47 998 5 8.0467 0 0
8:35 am 08:35 Cloudy with Fog 49 9.5 48 9.1 97 97 SSE 9 15 29.47 998 0.25 0.402335 0 0
8:55 am 08:55 Cloudy with Fog 50 10 49 9.5 97 97 SSE 12 19 29.47 998 0.5 0.80467 0 0
9:15 am 09:15 Cloudy with Mist and Fog 51 10.4 50 9.9 97 97 S 7 11 29.47 998 3 4.82802 0 0
9:35 am 09:35 Partly Cloudy 52 11.2 51 10.8 97 97 S 6 9 29.44 997 7 11.26538 0 0
9:55 am 09:55 Partly Cloudy 53 11.5 52 11 97 97 SSE 15 24 29.44 997 10 16.0934 0 0
10:15 am 10:15 Partly Cloudy 52 11.3 51 10.7 96 96 S 12 19 29.44 997 10 16.0934 0 0
10:35 am 10:35 Sunny 57 13.7 50 10.2 80 80 S 10 17 29.44 997 10 16.0934 0 0
10:55 am 10:55 Sunny 60 15.7 47 8.6 63 63 S 9 15 29.41 996 10 16.0934 0 0
11:15 am 11:15 Sunny 63 17.2 44 6.8 51 51 S 13 20 29.41 996 10 16.0934 0 0
11:35 am 11:35 Sunny 65 18.6 40 4.6 40 40 S 15 24 29.38 995 10 16.0934 0 0
11:55 am 11:55 Sunny 67 19.7 37 2.7 33 33 SSW 14 22 29.38 995 10 16.0934 0 0
12:15 pm 12:15 Sunny 69 20.7 37 2.9 31 31 SSW 15 24 29.38 995 10 16.0934 0 0
12:35 pm 12:35 Sunny 71 21.6 36 2 27 27 S 15 24 29.35 994 10 16.0934 0 0
12:55 pm 12:55 Sunny 72 22.3 35 1.4 25 25 SSW 18 30 29.32 993 10 16.0934 0 0
1:15 pm 13:15 Sunny 74 23.1 33 0.5 22 22 S 20 31 29.32 993 10 16.0934 0 0
1:35 pm 13:35 Sunny 76 24.2 31 -0.3 20 20 S 21 33 29.32 993 10 16.0934 0 0
1:55 pm 13:55 Sunny 78 25.3 28 -2.3 16 16 S 21 33 29.26 991 10 16.0934 0 0
2:15 pm 14:15 Sunny 78 25.7 22 -5.4 12 12 SSW 28 44 29.26 991 10 16.0934 0 0
2:35 pm 14:35 Sunny 79 26.1 22 -5.4 12 12 SSW 23 37 29.26 991 7 11.26538 0 0
2:55 pm 14:55 Sunny 79 26 20 -6.7 11 11 SSW 32 52 29.26 991 10 16.0934 0 0
3:15 pm 15:15 Sunny 79 26 19 -7.5 10 10 S 26 43 29.26 991 10 16.0934 0 0
3:35 pm 15:35 Sunny 79 26 19 -7.5 10 10 SSW 32 52 29.26 991 10 16.0934 0 0
3:55 pm 15:55 Sunny 78 25.8 18 -7.8 10 10 SSW 25 41 29.26 991 10 16.0934 0 0
4:15 pm 16:15 Sunny 78 25.7 19 -7.3 11 11 SSW 28 44 29.26 991 10 16.0934 0 0
4:35 pm 16:35 Sunny 78 25.5 19 -7.4 11 11 SSW 23 37 29.26 991 10 16.0934 0 0
4:55 pm 16:55 Sunny 78 25.3 19 -7.3 11 11 SSW 22 35 29.26 991 10 16.0934 0 0
5:15 pm 17:15 Sunny 77 25.1 19 -7.1 11 11 SSW 25 41 29.26 991 10 16.0934 0 0
5:35 pm 17:35 Sunny 76 24.7 20 -6.5 12 12 S 24 39 29.26 991 10 16.0934 0 0
5:55 pm 17:55 Sunny 76 24.2 19 -7.2 12 12 SSW 22 35 29.29 992 10 16.0934 0 0
6:15 pm 18:15 Sunny 73 22.7 18 -8 12 12 SSW 15 24 29.29 992 10 16.0934 0 0
6:35 pm 18:35 Sunny 70 21.2 19 -7.2 14 14 S 14 22 29.29 992 10 16.0934 0 0
6:55 pm 18:55 Clear 69 20.4 24 -4.7 18 18 S 15 24 29.35 994 10 16.0934 0 0
7:15 pm 19:15 Clear 68 19.8 29 -1.9 23 23 S 14 22 29.35 994 10 16.0934 0 0
7:35 pm 19:35 Clear 64 17.6 30 -1.3 28 28 S 10 17 29.35 994 10 16.0934 0 0
7:55 pm 19:55 Clear 62 16.6 31 -0.7 31 31 S 14 22 29.38 995 10 16.0934 0 0
8:15 pm 20:15 Clear 62 16.9 26 -3.3 25 25 SSW 15 24 29.41 996 10 16.0934 0 0
8:35 pm 20:35 Clear 62 16.7 22 -5.7 21 21 SSW 10 17 29.41 996 10 16.0934 0 0
8:55 pm 20:55 Clear 60 15.6 17 -8.1 19 19 S 9 15 29.44 997 10 16.0934 0 0
9:15 pm 21:15 Clear 59 15.2 21 -6.3 22 22 SSW 13 20 29.47 998 10 16.0934 0 0
9:35 pm 21:35 Clear 58 14.5 19 -7.1 22 22 SSW 10 17 29.5 999 10 16.0934 0 0
9:55 pm 21:55 Clear 55 12.5 25 -4.1 31 31 SW 8 13 29.5 999 10 16.0934 0 0
10:15 pm 22:15 Clear 54 12.4 25 -3.7 33 33 SW 10 17 29.5 999 10 16.0934 0 0
10:35 pm 22:35 Clear 54 12.2 32 0 43 43 WSW 12 19 29.53 1000 10 16.0934 0 0
10:55 pm 22:55 Clear 51 10.7 31 -0.8 45 45 WSW 12 19 29.56 1001 10 16.0934 0 0
11:15 pm 23:15 Clear 49 9.7 33 0.4 53 53 SW 12 19 29.56 1001 10 16.0934 0 0
11:35 pm 23:35 Clear 49 9.2 35 1.5 59 59 SW 7 11 29.56 1001 10 16.0934 0 0
11:55 pm 23:55 Clear 46 7.6 34 1.1 64 64 WSW 8 13 29.62 1003 10 16.0934 0 0

Powered by AerisWeather